loading
DOY 203 | 2024-07-21T10:25:06Z

SCOUT X-4 R/B, 907

Orbit data source: Space-Track

SCOUT X-4 R/B, 907 is space debris in LEO originally from a launch on Sat, 10 Oct 1964 UTC launched from the Air Force Western Test Range (AFWTR). Debris objects in space refer to the collection of defunct objects orbiting the Earth. Examples of debris include non-operational satellites, rocket bodies, and fragments generated from explosions, collisions, or faulty payload assembly.

Loading next visibility...
Loading greatness...
SCOUT X-4 R/B details
NORAD ID907
COSPAR ID
1964-064B
Orbit
LEO
Last TLE update17 hours ago
Origin
Flag of USNASA LaRC (US)
ManufacturerABL
BusAltair
MotorUnknown
Mass33 kg wet, 33 kg dry
Launch date (UTC)
1964-10-10 (60 years ago)
Launch vehicleUnknown
Launch site
Air Force Western Test Range (AFWTR)
Object type
Payload
Rocket body
Debris
Radar Cross Section0.48 m², Medium (>0.1 m² and < 1m²)
Predictive object data (real-time)
Latitude-31.47262°
Longitude-170.77058°
Altitude945.552 km
Speed7.392 km/s
Apparent Right ascension05h 42m 07s
Apparent Declination-61° 20' 13"
Sunlit
Object is in daylight
Predictive observer data (real-time)
Local Sidereal Time23:23:21
Azimuth143.575° SSE
Elevation-36.38°
Doppler factor1
Orbital elements
Apogee1,046.789 km
Perigee870.879 km
Semi-major axis7,336.971 km
Eccentricity0.0119879
Inclination79.69°
RAAN208.5785°
Arg. of periapsis285.9009°
True anomaly74.21415°
Mean anomaly72.8955°
Mean motion3.45357 °/min
BSTAR0.00021163
Period104.24 mins
Definitive object data (Epoch: 2024-07-20T17:43:49.306Z)
Latitude-0.00008°
Longitude3.62713°
Altitude939.433 km
Speed7.395 km/s
True Right ascension13h 54m 18s
True Declination0° 00' 00"
Sunlit
Object was in daylight at TLE epoch
TLE from 17 hours ago
0 SCOUT X-4 R/B
1 00907U 64064B   24202.73876512  .00000240  00000-0  21163-3 0  9997
2 00907  79.6900 208.5785 0119879 285.9009  72.8955 13.80661501  6522
Epoch: 2024-07-20T17:43Z
No data available
Other satellites on launch #64 in the year 1964 (1964-10-10 UTC)

SCOUT X-4 R/B Visibility forecast

Observer location: 39.9160978°, -105.1181434

SCOUT X-4 R/B is not visible in the next 10 days
Span
Click to sort rows by Start time (UTC) header in descending order
Start Az.
Max El. time (UTC)
Max El. Az.
Max El.
End time (UTC)
End Az.